Starlink 5577

operational
NORAD ID: 55751 Int'l Des: 2023-028 Owner: SPXS Country: US Constellation: starlink
LEOCIRCULAR

About Starlink 5577

Description loading...

Live Position

Loading 3D Globe...

Upcoming Passes

Altitude History

Altitude vs Time

uPlot chart will show altitude changes over time

Two-Line Element Set

1 55751U 23028L 25308.68658478 .00004829 00000-0 41269-3 0 9996
2 55751 70.0015 199.7221 0001954 273.1862 86.9073 14.98284306147311
Epoch: Nov 4, 2025 • Age: 16 hours

Current Status

Altitude 596.2 km
Velocity 7.56 km/s
Sub-Earth Point -69.20°S, 75.45°W
Launch Date Mar 3, 2023
Age 2.6 years
Type internet

Technical Details

Classification Payload
Mass 305.00 kg
Dry Mass 290.00 kg
Total Mass 305.00 kg
Length 0.20 m
Diameter 2.80 m
Span 9.00 m
Shape Box + pan
Manufacturer SPXS
Bus Type Starlink
Phase Status In Orbit
Owner/State SPXS/US

Large Constellations

Loading constellations...